This demonstration page uses our WeatherBlox Daily Observations layout. Learn more.

Left ArrowRight Arrow

Hourly Observations for December 16, 2015

Temp ( °F °C ) Dew Point ( °F °C ) Humidity (%) Winds ( mph kmh ) Pressure ( in mb ) Visibility ( mi km ) Precip ( " mm )
12:51 am 00:51 Clear 26 -3.3 21 -6.1 81 81 SSE 3 6 30.01 1016 10 16 N/A
1:51 am 01:51 Clear 25 -3.9 21 -6.1 85 85 N N/A 30.01 1016 10 16 N/A
2:51 am 02:51 Clear 24 -4.4 20 -6.7 84 84 N N/A 30.02 1017 10 16 N/A
3:51 am 03:51 Clear 23 -5 20 -6.7 88 88 ENE 3 6 30.02 1017 10 16 N/A
4:51 am 04:51 Clear 23 -5 20 -6.7 88 88 N N/A 30.02 1017 10 16 N/A
5:51 am 05:51 Clear 23 -5 20 -6.7 88 88 N N/A 30.04 1017 10 16 N/A
6:51 am 06:51 Clear 23 -5 19 -7.2 85 85 N N/A 30.06 1018 10 16 N/A
7:51 am 07:51 Sunny 24 -4.4 20 -6.7 84 84 NW 5 7 30.10 1019 10 16 N/A
8:51 am 08:51 Sunny 30 -1.1 24 -4.4 79 79 WSW 3 6 30.12 1020 10 16 N/A
9:51 am 09:51 Sunny N/A N/A N/A undefined N/A N/A N/A N/A
10:51 am 10:51 Sunny 36 2 N/A N/A SSW 5 7 30.12 1020 N/A N/A
11:51 am 11:51 undefined 40 4.4 22 -5.6 49 49 S 5 7 30.09 1019 10 16 N/A
12:51 pm 12:51 Sunny 43 6.1 22 -5.6 43 43 N N/A 30.06 1018 10 16 N/A
1:51 pm 13:51 Sunny 45 7.2 19 -7.2 35 35 N N/A 30.03 1017 10 16 N/A
2:51 pm 14:51 Sunny 47 8.3 19 -7.2 33 33 VRB 5 7 30.03 1017 10 16 N/A
3:51 pm 15:51 Sunny 47 8.3 17 -8.3 30 30 WNW 6 9 30.03 1017 10 16 N/A
4:51 pm 16:51 Sunny 45 7.2 20 -6.7 37 37 WSW 7 11 30.03 1017 10 16 N/A
5:51 pm 17:51 Clear 39 3.9 21 -6.1 48 48 W 7 11 30.06 1018 10 16 N/A
6:51 pm 18:51 Clear 34 1.1 23 -5 64 64 NW 7 11 30.09 1019 10 16 N/A
7:51 pm 19:51 Clear 34 1.1 23 -5 64 64 N 3 6 30.11 1020 10 16 N/A
8:51 pm 20:51 Clear 31 -0.6 22 -5.6 69 69 ESE 7 11 30.12 1020 10 16 N/A
9:51 pm 21:51 Clear 28 -2.2 22 -5.6 78 78 N N/A 30.24 1024 10 16 N/A
10:51 pm 22:51 Clear 28 -2.2 21 -6.1 75 75 ESE 3 6 30.14 1021 10 16 N/A
11:51 pm 23:51 Clear 27 -2.8 21 -6.1 78 78 N N/A 30.13 1020 10 16 N/A

Powered by AerisWeather